Wind_Speed
20 19 19 18 16 11 17 23 23 25 13 10 17 16 16 20 20 30 28 16 14 11 18 20 17 12 15 18 19 18 19 15 13 14 15 14 11 11 10 10 11 12 12 7
13 16 17 19 20 21 23 22 20 14 16 18 19 22 23 26 22 27 33 21 23 13 15 21 22 19 19 23 22 19 21 23 18 16 17 17 16 17 15 15 15 14 17 15
17 18 18 21 20 19 20 14 16 17 23 26 27 28 26 32 14 7 30 34 28 24 19 19 25 23 25 28 26 17 19 24 20 21 21 19 20 22 21 21 20 20 20 22
18 17 17 18 17 18 16 12 17 15 15 21 26 19 24 31 28 19 18 27 33 31 29 28 32 25 26 24 17 19 21 29 29 23 24 26 24 24 27 27 28 28 26 25
25 25 24 25 22 22 16 20 21 17 14 11 22 27 6 22 26 18 22 21 24 29 31 31 27 24 25 23 27 29 35 33 27 29 30 27 30 31 31 32 32 34 34 32
25 30 30 27 27 21 19 21 18 13 11 11 10 12 15 24 21 23 21 21 21 19 19 26 28 29 28 29 31 32 38 30 28 30 29 34 34 34 36 36 36 37 38 39
22 22 18 16 13 15 15 16 11 12 11 14 9 11 12 16 23 14 17 20 21 21 23 26 30 32 33 33 35 40 36 33 31 30 32 31 34 38 41 40 40 43 42 41
20 19 19 14 8 12 13 16 15 15 17 20 9 14 14 12 13 18 23 18 21 24 28 32 33 32 33 38 38 33 33 36 40 39 36 34 35 37 39 41 43 46 48 48
19 19 17 17 11 12 15 16 17 22 20 22 16 13 15 22 20 23 21 22 25 29 31 30 32 35 39 41 42 43 41 41 43 45 46 43 42 41 42 44 45 46 49 49
19 11 14 17 13 11 12 11 16 20 24 21 16 24 19 22 27 27 29 27 32 35 34 41 41 37 38 39 42 44 47 48 49 50 51 50 51 51 50 51 52 52 52 54
22 17 17 18 19 20 19 22 21 21 20 24 24 25 26 21 21 21 23 30 35 39 42 44 44 39 39 42 43 46 50 50 50 51 52 55 57 58 59 59 59 59 59 60
23 25 22 24 26 20 19 26 30 28 28 25 27 34 29 26 28 32 37 40 42 44 44 43 43 42 41 43 44 49 52 56 58 59 59 60 61 64 67 67 68 68 67 67
25 23 30 25 27 26 26 24 25 27 24 23 24 32 36 39 38 39 41 41 39 40 42 45 46 49 51 52 54 54 55 56 58 60 61 61 62 63 63 65 70 72 73 74
34 33 31 34 35 34 32 30 32 34 33 31 28 37 38 39 39 38 41 42 42 43 46 49 48 49 51 53 53 51 51 52 54 55 57 56 56 57 56 57 58 63 69 73
34 29 26 24 33 42 46 45 43 44 42 36 31 37 38 39 39 40 41 43 43 44 44 47 50 53 54 53 53 54 54 53 50 47 47 48 49 50 52 53 56 58 60 61
40 38 34 33 34 37 37 35 38 39 40 40 38 41 42 40 38 40 42 43 43 48 52 55 56 56 55 54 53 53 50 50 48 49 49 51 51 52 52 52 53 54 55 56
42 40 42 38 36 37 35 34 37 39 40 39 41 40 38 37 39 42 44 45 48 52 56 58 59 59 56 52 52 48 45 45 47 49 49 48 48 48 49 49 50 51 54 57
35 35 34 33 35 36 35 34 34 35 34 34 36 39 39 39 41 43 44 47 50 54 57 58 57 55 54 49 48 45 45 45 45 44 42 44 46 46 47 50 54 56 55 56
33 35 35 34 34 34 36 36 33 33 35 36 36 37 39 42 42 43 45 49 53 55 55 56 55 52 49 46 45 44 44 43 42 41 42 43 46 50 53 56 54 51 54 51
34 31 33 32 33 36 33 35 34 34 40 38 38 38 39 40 43 45 49 50 51 52 52 52 51 48 47 45 43 42 39 39 39 39 41 45 48 51 53 51 50 51 54 50
32 32 33 32 34 35 33 34 37 39 37 36 36 38 41 43 45 47 48 47 47 50 48 46 45 44 43 42 40 38 38 38 39 41 44 48 49 51 48 50 50 51 51 53
37 37 37 37 38 39 37 37 36 36 34 33 35 40 43 45 47 45 44 43 45 42 40 39 38 38 37 38 35 36 38 39 41 44 46 47 49 48 47 45 46 47 53 58
41 41 40 39 38 38 37 36 34 34 33 35 39 43 44 43 42 41 40 41 42 38 37 35 32 31 34 35 36 36 39 41 42 44 45 46 48 47 45 43 41 46 47 53
43 42 42 41 40 38 37 36 34 34 36 39 41 42 42 42 38 38 40 39 35 35 33 32 32 33 35 35 38 40 42 41 42 44 45 47 49 46 43 45 47 49 52 52
41 38 39 40 42 39 37 36 36 36 36 38 40 41 41 37 37 39 35 34 33 31 30 32 32 34 35 37 39 41 41 42 45 47 48 48 50 48 47 47 48 51 55 54
37 38 40 42 42 40 37 37 39 36 34 35 37 38 36 33 36 35 32 31 29 28 29 30 32 34 35 37 39 40 42 45 46 46 48 49 48 47 47 47 47 50 52 51
Wind_Direction
212 217 225 223 220 220 200 192 189 177 189 226 258 243 223 239 272 277 275 292 305 305 306 314 318 319 339 331 333 326 318 321 333 341 344 351 340 324 299 291 295 302 306 320
213 217 212 210 211 210 210 219 228 233 211 230 233 228 217 233 262 260 270 271 274 274 284 298 310 300 314 309 311 314 315 310 316 318 320 325 325 318 304 298 296 298 301 308
207 214 215 213 216 229 233 237 241 249 223 227 224 227 239 247 247 234 252 253 262 270 280 287 296 294 289 290 320 323 321 306 294 295 296 297 302 302 297 295 292 287 291 297
209 212 217 229 223 226 231 250 244 249 237 239 244 252 256 250 263 231 245 240 254 260 265 272 283 295 295 298 310 300 308 309 302 280 275 281 278 279 285 283 278 278 279 281
225 228 227 235 239 241 235 242 247 251 248 240 242 246 205 219 212 245 241 249 250 256 259 264 276 276 288 296 300 306 310 309 297 292 284 275 272 274 275 277 281 289 286 275
242 243 243 245 249 241 239 246 258 250 230 226 244 236 219 211 224 238 246 257 275 276 277 270 275 284 291 288 291 296 308 301 301 294 289 280 276 275 275 273 270 274 281 283
218 228 226 207 226 234 236 242 223 226 206 179 213 231 230 208 223 239 254 269 268 279 282 282 287 290 287 288 295 299 302 303 299 293 289 284 279 273 273 273 273 275 277 276
226 208 212 199 226 230 220 226 211 204 202 195 222 245 258 246 246 249 259 255 259 271 281 283 286 284 288 290 295 304 300 301 298 296 293 286 281 278 276 277 275 275 275 277
207 209 213 220 226 226 220 220 200 204 209 216 220 245 260 221 226 229 234 253 259 264 264 261 265 275 286 291 294 296 295 294 294 295 298 295 287 282 279 279 278 278 279 279
207 189 204 202 204 217 216 228 233 222 217 216 233 234 241 248 245 253 255 258 251 253 255 259 274 275 277 281 288 294 296 297 297 296 292 288 286 285 282 280 277 276 275 277
196 185 198 217 220 230 233 228 229 231 226 222 227 242 246 245 247 252 257 247 248 251 258 273 278 286 289 291 290 289 288 287 285 284 284 284 284 282 281 280 278 278 277 277
209 197 209 217 227 241 228 207 221 227 234 237 233 236 245 246 243 249 255 256 260 267 274 283 288 289 290 288 283 281 279 281 281 280 281 278 275 274 277 277 278 278 277 276
245 222 218 215 231 236 232 238 241 249 250 241 245 251 247 251 256 260 264 271 276 280 286 288 288 286 284 279 276 275 278 280 281 280 279 279 279 277 276 274 275 276 275 274
235 241 236 231 230 233 234 241 254 264 265 267 260 259 255 258 263 270 274 276 280 285 288 289 285 280 281 283 286 285 283 281 280 280 281 281 280 280 280 279 277 274 274 275
246 256 256 244 237 237 239 243 253 258 262 260 261 267 262 270 275 278 284 290 293 294 289 287 288 288 291 294 294 294 293 291 290 290 288 285 284 283 283 281 279 277 275 274
253 260 263 259 247 245 244 246 250 250 253 261 263 259 261 270 280 285 288 291 291 288 288 288 289 292 296 298 296 295 296 295 296 295 294 294 295 293 291 290 289 287 285 283
254 256 256 252 250 250 252 247 247 247 248 255 261 268 275 282 287 287 288 288 286 286 288 290 291 295 296 296 293 293 293 294 294 294 295 295 294 294 293 291 290 289 289 289
249 245 247 248 247 250 252 252 252 255 260 258 261 269 275 277 276 276 278 279 281 283 287 291 294 295 297 297 295 298 297 296 295 295 296 295 296 296 294 293 291 291 291 289
245 243 245 243 244 246 252 256 261 267 272 272 275 277 279 282 283 282 282 281 283 288 291 292 292 295 296 294 296 295 294 293 295 297 298 299 299 298 296 299 299 295 296 296
251 249 247 247 249 251 247 266 268 272 273 280 283 284 282 279 279 279 278 281 285 288 289 293 294 294 293 294 293 291 293 295 297 297 298 299 299 301 302 300 297 295 296 297
249 251 256 257 258 260 262 265 271 271 278 279 278 276 275 274 275 275 280 286 287 285 288 287 288 288 290 290 292 295 295 296 297 299 301 304 307 307 305 302 299 298 296 299
249 251 254 257 260 262 265 265 268 273 278 277 273 271 271 274 276 283 284 283 281 284 283 283 283 285 286 290 294 293 295 297 300 303 305 306 307 308 308 311 307 306 308 304
258 258 261 262 263 267 269 273 278 278 281 277 272 272 275 281 284 286 287 285 288 290 287 286 288 290 291 290 291 295 300 301 301 303 305 306 309 310 313 312 313 319 319 319
259 263 267 270 270 272 272 277 283 287 282 278 281 284 287 289 294 291 289 292 293 290 290 292 294 291 289 292 295 298 300 299 300 303 306 307 310 310 308 310 313 315 318 319
260 268 272 275 274 275 277 279 279 275 276 280 282 286 288 293 292 289 293 292 291 289 292 291 290 290 292 294 296 298 299 300 303 306 308 308 309 309 307 309 311 314 318 320
259 265 268 267 269 275 281 278 275 278 283 282 285 288 293 294 288 291 289 286 286 289 289 291 292 293 295 298 299 300 301 303 306 307 308 311 312 311 310 311 314 314 314 318
Height
5906 5910 5912 5915 5918 5921 5922 5922 5924 5923 5923 5924 5926 5927 5928 5927 5927 5926 5926 5927 5929 5931 5930 5930 5931 5930 5929 5928 5928 5927 5928 5929 5928 5927 5927 5928 5927 5927 5926 5925 5922 5919 5917 5919
5906 5908 5909 5911 5912 5915 5916 5917 5921 5922 5921 5921 5924 5924 5925 5927 5929 5927 5924 5922 5926 5928 5930 5928 5929 5928 5928 5926 5926 5926 5925 5924 5927 5926 5925 5925 5925 5924 5923 5921 5920 5919 5916 5915
5901 5904 5906 5907 5909 5912 5913 5915 5916 5917 5917 5917 5919 5921 5922 5924 5926 5924 5917 5920 5921 5922 5924 5925 5926 5927 5926 5923 5925 5926 5925 5923 5922 5921 5921 5921 5921 5920 5919 5918 5917 5917 5915 5913
5897 5900 5903 5904 5906 5908 5911 5911 5911 5914 5915 5915 5915 5917 5919 5920 5922 5915 5912 5913 5914 5917 5920 5921 5923 5925 5924 5924 5924 5925 5923 5923 5921 5918 5917 5915 5915 5914 5913 5912 5911 5910 5910 5909
5893 5895 5897 5900 5903 5904 5908 5906 5907 5911 5912 5912 5910 5913 5917 5913 5913 5910 5909 5910 5913 5915 5917 5918 5919 5919 5919 5920 5919 5919 5918 5919 5916 5912 5912 5911 5909 5908 5906 5904 5905 5903 5902 5902
5891 5891 5893 5896 5897 5899 5901 5902 5905 5906 5907 5908 5907 5908 5906 5906 5906 5906 5906 5907 5910 5912 5914 5914 5914 5914 5914 5914 5914 5915 5913 5909 5909 5907 5906 5904 5903 5903 5898 5895 5893 5895 5893 5893
5884 5886 5888 5890 5892 5894 5896 5898 5901 5902 5903 5904 5903 5902 5901 5902 5902 5903 5905 5906 5905 5907 5907 5908 5909 5908 5908 5908 5910 5909 5905 5901 5900 5899 5898 5897 5895 5894 5891 5889 5888 5886 5884 5885
5881 5883 5886 5888 5889 5890 5893 5894 5897 5899 5900 5901 5899 5898 5898 5899 5900 5901 5902 5903 5905 5905 5904 5903 5902 5901 5901 5900 5900 5899 5897 5895 5891 5889 5888 5888 5885 5883 5881 5878 5877 5875 5873 5873
5878 5880 5882 5884 5885 5888 5889 5891 5893 5893 5895 5897 5897 5897 5896 5896 5898 5898 5898 5900 5902 5903 5903 5902 5900 5898 5897 5894 5892 5891 5889 5887 5884 5880 5876 5874 5873 5872 5869 5867 5865 5863 5861 5858
5875 5876 5877 5880 5882 5884 5884 5887 5889 5890 5892 5893 5892 5891 5892 5894 5894 5894 5894 5894 5895 5895 5894 5893 5892 5893 5893 5892 5890 5885 5880 5876 5873 5869 5865 5861 5859 5857 5856 5854 5852 5850 5848 5845
5872 5874 5877 5876 5876 5878 5881 5881 5883 5885 5887 5888 5888 5887 5888 5888 5889 5889 5888 5886 5885 5885 5886 5886 5887 5888 5888 5885 5880 5873 5867 5864 5861 5857 5854 5850 5846 5843 5839 5837 5836 5834 5833 5830
5868 5870 5872 5875 5874 5876 5876 5876 5877 5879 5882 5883 5882 5882 5880 5881 5881 5881 5882 5882 5880 5878 5878 5878 5879 5877 5875 5873 5869 5863 5857 5850 5847 5844 5841 5838 5835 5829 5823 5820 5818 5816 5816 5815
5862 5865 5868 5869 5871 5872 5872 5872 5874 5875 5877 5877 5877 5873 5873 5871 5872 5873 5873 5872 5874 5873 5871 5868 5866 5862 5859 5857 5854 5850 5845 5839 5834 5827 5823 5820 5815 5812 5810 5808 5802 5799 5796 5794
5854 5857 5861 5865 5865 5865 5867 5867 5867 5868 5869 5870 5871 5864 5864 5865 5866 5865 5864 5863 5864 5863 5860 5856 5852 5847 5843 5838 5835 5831 5828 5824 5819 5813 5807 5804 5801 5795 5792 5790 5788 5786 5780 5776
5847 5850 5854 5857 5857 5857 5858 5862 5863 5860 5861 5861 5865 5856 5856 5856 5857 5856 5854 5852 5851 5849 5845 5841 5836 5831 5827 5823 5818 5812 5808 5802 5799 5796 5792 5788 5785 5782 5778 5774 5770 5767 5764 5761
5842 5843 5846 5848 5846 5846 5849 5854 5853 5853 5851 5850 5852 5849 5850 5850 5850 5847 5844 5842 5839 5834 5828 5823 5820 5817 5814 5810 5803 5797 5793 5787 5782 5778 5775 5771 5768 5764 5760 5756 5752 5749 5745 5742
5835 5836 5836 5837 5837 5837 5840 5842 5841 5841 5842 5844 5841 5841 5842 5842 5841 5837 5833 5830 5825 5819 5814 5810 5805 5802 5798 5795 5788 5785 5781 5776 5771 5766 5762 5758 5754 5750 5746 5742 5737 5733 5728 5724
5824 5825 5826 5827 5828 5829 5829 5830 5831 5832 5834 5836 5835 5833 5833 5833 5831 5827 5824 5819 5813 5806 5801 5797 5791 5788 5783 5779 5774 5770 5767 5763 5759 5755 5751 5746 5742 5737 5732 5728 5722 5717 5711 5707
5813 5815 5816 5817 5819 5822 5820 5821 5825 5823 5822 5823 5825 5825 5823 5819 5816 5813 5809 5803 5798 5793 5788 5783 5778 5775 5771 5767 5764 5760 5755 5751 5747 5744 5740 5735 5729 5724 5718 5711 5704 5699 5693 5688
5802 5804 5807 5809 5810 5811 5816 5813 5815 5814 5810 5813 5813 5812 5809 5806 5801 5798 5793 5790 5787 5781 5775 5770 5766 5762 5758 5756 5753 5748 5745 5741 5737 5733 5728 5723 5717 5710 5703 5695 5689 5682 5677 5671
5793 5795 5797 5799 5799 5801 5804 5807 5805 5803 5808 5805 5803 5799 5794 5791 5788 5784 5782 5780 5774 5768 5765 5760 5757 5753 5749 5745 5742 5738 5734 5731 5726 5721 5715 5709 5702 5695 5688 5682 5674 5668 5661 5654
5784 5786 5788 5790 5790 5791 5794 5796 5797 5796 5794 5794 5790 5785 5781 5778 5775 5774 5772 5768 5761 5759 5754 5751 5747 5743 5738 5734 5732 5728 5724 5720 5715 5709 5702 5697 5690 5683 5676 5668 5660 5653 5645 5637
5772 5775 5777 5780 5781 5780 5782 5782 5783 5783 5781 5778 5773 5770 5768 5766 5764 5761 5757 5751 5747 5745 5741 5738 5735 5732 5727 5725 5722 5718 5714 5709 5704 5698 5691 5685 5678 5670 5662 5655 5647 5639 5629 5620
5762 5764 5765 5767 5769 5770 5771 5770 5769 5767 5764 5761 5759 5756 5754 5752 5751 5745 5740 5737 5736 5732 5729 5726 5724 5721 5718 5715 5711 5707 5703 5699 5693 5686 5680 5673 5666 5658 5650 5643 5634 5626 5616 5606
5754 5755 5754 5755 5755 5757 5758 5758 5757 5755 5753 5750 5747 5745 5741 5740 5736 5731 5730 5727 5725 5722 5721 5718 5716 5712 5709 5706 5702 5697 5692 5687 5681 5674 5667 5660 5653 5646 5639 5631 5623 5613 5602 5592
5746 5746 5744 5742 5744 5746 5747 5744 5742 5742 5742 5739 5737 5733 5732 5729 5724 5722 5721 5718 5717 5715 5712 5710 5706 5703 5699 5695 5691 5686 5681 5675 5669 5663 5657 5649 5642 5635 5628 5621 5613 5601 5590 5581